Change the Weather History Date:

Wednesday, December 12, 2012

  Actual Average Record
Temperature  
Mean Temperature 35 °F 30 °F  
Max Temperature 42 °F 37 °F 61 °F (1979)
Min Temperature 27 °F 24 °F -10 °F (1988)
Degree Days  
Heating Degree Days 30 34  
Month to date heating degree days 289 388  
Since 1 July heating degree days 1494 1737  
Cooling Degree Days 0 0  
Month to date cooling degree days 0 0  
Year to date cooling degree days 953 569  
Moisture  
Dew Point 26 °F    
Average Humidity 71    
Maximum Humidity 92    
Minimum Humidity 49    
Precipitation  
Precipitation 0.00 in 0.11 in 1.23 in (1983)
Month to date precipitation 2.24 1.36  
Year to date precipitation 29.78 36.61  
Snow  
Snow 0.00 in 1.10 in 6.10 in (2003)
Month to date snowfall 0.2 11.7  
Since 1 July snowfall 3.0 21.6  
Snow Depth 0.00 in    
Sea Level Pressure  
Sea Level Pressure 30.32 in    
Wind  
Wind Speed 7 mph (SW)    
Max Wind Speed 16 mph    
Max Gust Speed 21 mph    
Visibility 10 miles    
Events      
T = Trace of Precipitation, MM = Missing Value Source: NWS Daily Summary

Daily Weather History Graph

Daily Weather History Graph

Search for Another Location

Airport or City:

Trip Planner

Search our weather history database for the weather conditions in past years. The results will help you decide how hot, cold, wet, or windy it might be!

Date:

Astronomy

Dec. 12, 2012 Rise Set
Actual Time 7:27 AM EST 4:29 PM EST
Civil Twilight 6:54 AM EST 5:01 PM EST
Nautical Twilight 6:18 AM EST 5:37 PM EST
Astronomical Twilight 5:44 AM EST 6:12 PM EST
Moon 6:28 AM EST (12/12) 4:04 PM EST (12/12)
Length of Visible Light 10h 07m
Length of Day
9h 02m
Waning Crescent, 1% of the Moon is Illuminated
Dec 12
Waning Crescent
Dec 13
New
Dec 20
First Quarter
Dec 28
Full
Jan 4
Last Quarter

Hourly Weather History & Observations

Time (EST) Temp. Windchill Dew Point Humidity Pressure Visibility Wind Dir Wind Speed Gust Speed Precip Events Conditions
12:54 AM 27.0 °F - 23.0 °F 85% 30.20 in 10.0 mi Calm Calm - N/A   Scattered Clouds
1:54 AM 28.0 °F - 24.1 °F 85% 30.21 in 10.0 mi Calm Calm - N/A   Mostly Cloudy
2:54 AM 28.9 °F 25.2 °F 26.1 °F 89% 30.22 in 10.0 mi East 3.5 mph - N/A   Overcast
3:54 AM 30.0 °F 26.5 °F 26.1 °F 85% 30.22 in 10.0 mi ESE 3.5 mph - N/A   Overcast
4:54 AM 30.9 °F - 27.0 °F 85% 30.24 in 10.0 mi Calm Calm - N/A   Overcast
5:54 AM 30.9 °F - 27.0 °F 85% 30.26 in 10.0 mi Calm Calm - N/A   Overcast
6:54 AM 34.0 °F 27.2 °F 26.1 °F 73% 30.29 in 10.0 mi SW 8.1 mph - N/A   Overcast
7:54 AM 35.1 °F 28.6 °F 26.1 °F 70% 30.31 in 10.0 mi WSW 8.1 mph - N/A   Overcast
8:54 AM 36.0 °F 31.1 °F 27.0 °F 70% 30.33 in 10.0 mi SW 5.8 mph - N/A   Overcast
9:54 AM 37.9 °F 30.5 °F 26.1 °F 62% 30.33 in 10.0 mi SW 11.5 mph - N/A   Scattered Clouds
10:54 AM 39.9 °F 33.9 °F 26.1 °F 58% 30.34 in 10.0 mi SSW 9.2 mph - N/A   Scattered Clouds
11:54 AM 41.0 °F 34.7 °F 26.1 °F 55% 30.33 in 10.0 mi SW 10.4 mph - N/A   Scattered Clouds
12:54 PM 41.0 °F 34.7 °F 25.0 °F 53% 30.33 in 10.0 mi WSW 10.4 mph - N/A   Partly Cloudy
1:54 PM 42.1 °F 35.7 °F 25.0 °F 51% 30.33 in 10.0 mi WSW 11.5 mph - N/A   Scattered Clouds
2:54 PM 42.1 °F 36.1 °F 25.0 °F 51% 30.34 in 10.0 mi SW 10.4 mph - N/A   Scattered Clouds
3:54 PM 41.0 °F 34.3 °F 25.0 °F 53% 30.36 in 10.0 mi WSW 11.5 mph - N/A   Mostly Cloudy
4:54 PM 39.0 °F 32.8 °F 25.0 °F 57% 30.37 in 10.0 mi WSW 9.2 mph - N/A   Mostly Cloudy
5:54 PM 36.0 °F 29.6 °F 25.0 °F 64% 30.37 in 10.0 mi SW 8.1 mph - N/A   Mostly Cloudy
6:54 PM 37.9 °F 33.5 °F 26.1 °F 62% 30.38 in 10.0 mi SW 5.8 mph - N/A   Overcast
7:54 PM 37.9 °F 30.9 °F 25.0 °F 60% 30.38 in 10.0 mi SW 10.4 mph - N/A   Mostly Cloudy
8:54 PM 37.9 °F 30.9 °F 26.1 °F 62% 30.39 in 10.0 mi WSW 10.4 mph - N/A   Overcast
9:54 PM 39.0 °F 34.0 °F 26.1 °F 60% 30.39 in 10.0 mi WSW 6.9 mph - N/A   Overcast
10:54 PM 37.0 °F 32.4 °F 27.0 °F 67% 30.40 in 10.0 mi West 5.8 mph - N/A   Overcast
11:54 PM 37.0 °F - 27.0 °F 67% 30.41 in 10.0 mi Calm Calm - N/A   Overcast